{"data":{"norad_id":48052,"intl_designator":"2021-025L","name":"ONEWEB-0156","alt_names":[],"object_type":"PAYLOAD","status":"ACTIVE","operator":null,"country":"UK","launch_date":"2021-03-25","launch_site_code":"VOSTO","launch_vehicle":null,"mission":null,"orbit_class":"UNKNOWN","rcs_meters":null,"size_class":null,"mass_kg":null,"dimensions":null,"purposes":["comms"],"wikipedia_slug":null,"has_3d_model":false,"image_url":null,"decayed_at":null,"tle_current":{"epoch":"2026-09-20T02:40:44.031072Z","epoch_age_seconds":51858,"freshness":"FRESH","line1":"1 48052U 21025L   26263.11162073  .00000193  00000+0  49421-3 0  9994","line2":"2 48052  87.8924 301.3377 0001793  98.1700 261.9632 13.13468538266036","mean_motion":13.13468538,"eccentricity":0.0001793,"inclination_deg":87.8924,"raan_deg":301.3377,"arg_perigee_deg":98.17,"mean_anomaly_deg":261.9632,"bstar":0.00049421,"rev_number":26603,"period_min":109.63338354436,"perigee_km":1208.4105186347,"apogee_km":1211.1315424545,"semimajor_km":7587.9080305446,"source":"CELESTRAK","updated_at":"2026-09-20T09:00:44.585820Z"}}}